Mt. Pocono, PA

1:19 PM EST on December 15, 2019 (GMT -0500)
Pocono Mountains Municipal

Weather History for KMPO - October, 2019

Change the Weather History Date:

Saturday, October 19, 2019

  Actual Average Record
Temperature  
Mean Temperature 46 °F 47 °F  
Max Temperature 59 °F 57 °F 80 °F (1963)
Min Temperature 33 °F 38 °F 18 °F (1974)
Degree Days  
Heating Degree Days 19 18  
Month to date heating degree days 261 288  
Since 1 July heating degree days 439 556  
Cooling Degree Days 0 0  
Month to date cooling degree days 5 0  
Year to date cooling degree days 348 313  
Moisture  
Dew Point 34 °F    
Average Humidity 73    
Maximum Humidity 100    
Minimum Humidity 32    
Precipitation  
Precipitation 0.00 in 0.13 in 3.63 in (2012)
Month to date precipitation 3.46 2.71  
Year to date precipitation 39.68 39.05  
Sea Level Pressure  
Sea Level Pressure 30.06 in    
Wind  
Wind Speed 7 mph ()    
Max Wind Speed 15 mph    
Max Gust Speed 20 mph    
Visibility 10.0 miles    
Events      
T = Trace of Precipitation, MM = Missing Value Source: Averaged Metar Reports

Daily Weather History Graph

Daily Weather History Graph

Search for Another Location

Airport or City:

Astronomy

Oct. 19, 2019 Rise Set
Actual Time 7:17 AM EDT 6:15 PM EDT
Civil Twilight 6:49 AM EDT 6:42 PM EDT
Nautical Twilight 6:17 AM EDT 7:14 PM EDT
Astronomical Twilight 5:45 AM EDT 7:46 PM EDT
Moon 10:19 PM EDT (10/19) 12:49 PM EDT (10/19)
Length of Visible Light 11h 53m
Length of Day
10h 57m
Waning Gibbous, 70% of the Moon is Illuminated
Oct 19
Waning Gibbous
Oct 21
Last Quarter
Oct 27
New
Nov 4
First Quarter
Nov 12
Full

Hourly Weather History & Observations

Time (EDT) Temp. Windchill Dew Point Humidity Pressure Visibility Wind Dir Wind Speed Gust Speed Precip Events Conditions
12:53 AM 36.0 °F 27.1 °F 34.0 °F 93% 30.05 in 10.0 mi NW 13.8 mph - N/A   Clear
1:53 AM 35.1 °F 28.6 °F 34.0 °F 96% 30.06 in 10.0 mi WNW 8.1 mph - N/A   Clear
2:53 AM 34.0 °F 27.2 °F 33.1 °F 96% 30.05 in 10.0 mi WNW 8.1 mph - N/A   Clear
3:53 AM 35.1 °F 26.4 °F 34.0 °F 96% 30.03 in 10.0 mi NW 12.7 mph - N/A   Clear
4:53 AM 35.1 °F 25.9 °F 33.1 °F 92% 30.03 in 10.0 mi NNW 13.8 mph - N/A   Clear
5:53 AM 34.0 °F 26.6 °F 33.1 °F 96% 30.06 in 10.0 mi WNW 9.2 mph - N/A   Clear
6:53 AM 34.0 °F 26.0 °F 33.1 °F 96% 30.08 in 10.0 mi NW 10.4 mph - N/A   Clear
7:53 AM 35.1 °F 27.9 °F 34.0 °F 96% 30.08 in 10.0 mi NW 9.2 mph - N/A   Clear
8:53 AM 39.0 °F 34.0 °F 36.0 °F 89% 30.09 in 10.0 mi WNW 6.9 mph - N/A   Clear
9:53 AM 44.1 °F 39.5 °F 36.0 °F 73% 30.10 in 10.0 mi NNW 8.1 mph - N/A   Clear
10:53 AM 46.9 °F - 35.1 °F 63% 30.10 in 10.0 mi NW 6.9 mph - N/A   Clear
11:53 AM 48.9 °F - 33.1 °F 54% 30.09 in 10.0 mi NW 8.1 mph - N/A   Clear
12:53 PM 53.1 °F - 32.0 °F 45% 30.07 in 10.0 mi NNW 4.6 mph - N/A   Clear
1:53 PM 55.0 °F - 32.0 °F 42% 30.06 in 10.0 mi North - - N/A   Clear
2:53 PM 55.9 °F - 27.0 °F 33% 30.04 in 10.0 mi Calm Calm - N/A   Clear
3:53 PM 57.0 °F - 28.9 °F 34% 30.04 in 10.0 mi WNW 3.5 mph - N/A   Clear
4:53 PM 55.9 °F - 30.0 °F 37% 30.03 in 10.0 mi WSW 4.6 mph - N/A   Clear
5:53 PM 53.1 °F - 30.9 °F 43% 30.03 in 10.0 mi Calm Calm - N/A   Clear
6:53 PM 48.0 °F - 36.0 °F 63% 30.04 in 10.0 mi West 3.5 mph - N/A   Clear
7:53 PM 44.1 °F 42.5 °F 37.0 °F 76% 30.05 in 10.0 mi West 3.5 mph - N/A   Clear
8:53 PM 44.1 °F 42.5 °F 37.9 °F 79% 30.05 in 10.0 mi West 3.5 mph - N/A   Clear
9:53 PM 42.1 °F 40.2 °F 36.0 °F 79% 30.05 in 10.0 mi WNW 3.5 mph - N/A   Clear
10:53 PM 37.0 °F - 34.0 °F 89% 30.06 in 10.0 mi Calm Calm - N/A   Clear
11:53 PM 37.0 °F - 36.0 °F 96% 30.04 in 10.0 mi Calm Calm - N/A   Clear